Haleyville, AL

2:45 AM CDT on August 18, 2017 (GMT -0500)
Haleyville

Weather History for K1M4 - September, 2013

Change the Weather History Date:

Sunday, September 15, 2013

  Actual Average (KJFX) Record (KJFX)
Temperature  
Mean Temperature 66 °F -  
Max Temperature 83 °F 85 °F 102 °F (2016)
Min Temperature 50 °F 60 °F 48 °F (1961)
Cooling Degree Days 2    
Growing Degree Days 16 (Base 50)    
Moisture  
Dew Point 56 °F    
Average Humidity 76    
Maximum Humidity 100    
Minimum Humidity 35    
Precipitation  
Precipitation 0.00 in - - ()
Sea Level Pressure  
Sea Level Pressure 30.16 in    
Wind  
Wind Speed 1 mph (South)    
Max Wind Speed 7 mph    
Max Gust Speed -    
Visibility 10 miles    
Events      
Averages and records for this station are not official NWS values.
T = Trace of Precipitation, MM = Missing Value Source: NWS Daily Summary

Daily Weather History Graph

Daily Weather History Graph

Search for Another Location

Airport or City:

Trip Planner

Search our weather history database for the weather conditions in past years. The results will help you decide how hot, cold, wet, or windy it might be!

Date:

Astronomy

Sep. 15, 2013 Rise Set
Actual Time 6:33 AM CDT 6:56 PM CDT
Civil Twilight 6:08 AM CDT 7:21 PM CDT
Nautical Twilight 5:39 AM CDT 7:51 PM CDT
Astronomical Twilight 5:09 AM CDT 8:21 PM CDT
Moon 4:16 PM CDT (9/15) 2:20 AM CDT (9/15)
Length of Visible Light 13h 13m
Length of Day
12h 22m
Waxing Gibbous, 82% of the Moon is Illuminated
Sep 15
Waxing Gibbous
Sep 19
Full
Sep 26
Last Quarter
Oct 4
New
Oct 11
First Quarter

Hourly Weather History & Observations

Time (CDT) Temp. Heat Index Dew Point Humidity Pressure Visibility Wind Dir Wind Speed Gust Speed Precip Events Conditions
12:56 AM 54.0 °F - 54.0 °F 100% 30.12 in 10.0 mi Calm Calm - N/A   Clear
1:56 AM 52.9 °F - 52.9 °F 100% 30.13 in 10.0 mi Calm Calm - N/A   Clear
2:56 AM 52.9 °F - 52.9 °F 100% 30.13 in 10.0 mi Calm Calm - N/A   Clear
3:56 AM 52.0 °F - 52.0 °F 100% 30.13 in 10.0 mi Calm Calm - N/A   Clear
4:56 AM 50.9 °F - 50.9 °F 100% 30.14 in 10.0 mi Calm Calm - N/A   Clear
5:56 AM 50.9 °F - 50.9 °F 100% 30.14 in 10.0 mi Calm Calm - N/A   Clear
6:56 AM 50.9 °F - 50.9 °F 100% 30.16 in 10.0 mi Calm Calm - N/A   Clear
7:56 AM 59.0 °F - 57.9 °F 96% 30.17 in 10.0 mi Calm Calm - N/A   Clear
8:56 AM 68.9 °F - 61.0 °F 76% 30.18 in 10.0 mi ESE 4.6 mph - N/A   Clear
9:56 AM 72.9 °F - 59.0 °F 62% 30.19 in 10.0 mi South 6.9 mph - N/A   Clear
10:56 AM 75.9 °F - 57.9 °F 54% 30.19 in 10.0 mi Variable 4.6 mph - N/A   Clear
11:56 AM 79.0 °F - 54.9 °F 43% 30.19 in 10.0 mi SSE 6.9 mph - N/A   Clear
12:56 PM 81.0 °F 80.7 °F 54.9 °F 41% 30.18 in 10.0 mi Variable 6.9 mph - N/A   Clear
1:56 PM 81.9 °F 81.2 °F 54.9 °F 39% 30.17 in 10.0 mi Variable 4.6 mph - N/A   Clear
2:56 PM 82.9 °F 82.0 °F 54.9 °F 38% 30.16 in 10.0 mi WSW 3.5 mph - N/A   Clear
3:56 PM 83.8 °F 82.8 °F 55.9 °F 38% 30.15 in 10.0 mi Variable 3.5 mph - N/A   Clear
4:56 PM 82.9 °F - 52.9 °F 35% 30.15 in 10.0 mi Calm Calm - N/A   Clear
5:56 PM 81.9 °F 81.2 °F 54.9 °F 39% 30.16 in 10.0 mi Calm Calm - N/A   Clear
6:56 PM 70.9 °F - 61.0 °F 71% 30.15 in 10.0 mi Calm Calm - N/A   Clear
7:56 PM 64.9 °F - 61.0 °F 87% 30.17 in 10.0 mi Calm Calm - N/A   Clear
8:56 PM 63.0 °F - 61.9 °F 96% 30.17 in 10.0 mi Calm Calm - N/A   Clear
9:56 PM 61.0 °F - 61.0 °F 100% 30.18 in 10.0 mi Calm Calm - N/A   Clear
10:56 PM 59.9 °F - 59.9 °F 100% 30.18 in 10.0 mi Calm Calm - N/A   Clear
11:56 PM 59.0 °F - 59.0 °F 100% 30.18 in 10.0 mi Calm Calm - N/A   Clear